BEIDOU-3 M19 (44864 NORAD) Tracking and Keplerian Element Data

This shows tracking and keplerian element data for the satellite.

Feedback or suggestion? Click here.




ElementValue
Catalog44864
NameBEIDOU-3 M19
Epoch Orbit201
Epoch Day93.41193317
Epoch Year2020
RAAN138.7346
Inclination55.0454
Eccentricity0.0016449
Argument of Perigee262.3646
Mean Anonmoly66.6049
Mean Motion1.86231854
Decay Rate4.4E-07
L11 44864U 19090A 20093.41193317 .00000044 00000-0 00000+0 0 9995
L22 44864 55.0454 138.7346 0016449 262.3646 66.6049 1.86231854 2018

Live tracking and technical data element details for BEIDOU-3 M19 (NORAD 44864). BEIDOU-3 M19 can be tracked NOW for your location showing map with azimuth and elevation plus other details from your city location.

Track the satellite on the map from your city or location and see movement details for azimuth, elevation, latitude, longitude, range, height, and movement on the map or in text.







IsCatalogInMostPopularTable: catalog: 44864, numindb: 37
Update: records affected: 1



GetName: 44864 BEIDOU-3 M19

Hit Count: updated at: Sun, 05 Apr 2020 19:56:31 GMT